H1 CPF 2 NER 2025 11 12 9 316 01 glonass139 H2 1808601 9139 43687 2025 11 12 0 0 0 2025 11 15 23 45 0 900 1 1 0 0 0 1 H9 10 0 60991 0.00000 0 -14219662.367 -3127311.765 20961685.665 10 0 60991 900.00000 0 -11979841.960 -4545972.662 22072265.177 10 0 60991 1800.00000 0 -9760210.611 -6189025.480 22754888.528 10 0 60991 2700.00000 0 -7621734.314 -8024978.347 22996313.991 10 0 60991 3600.00000 0 -5619315.327 -10011801.230 22791834.662 10 0 60991 4500.00000 0 -3799685.240 -12098491.593 22145370.945 10 0 60991 5400.00000 0 -2199651.933 -14227029.370 21069398.635 10 0 60991 6300.00000 0 -844772.309 -16334641.313 19584713.612 10 0 60991 7200.00000 0 251494.795 -18356281.699 17720037.040 10 0 60991 8100.00000 0 1088120.954 -20227227.203 15511467.825 10 0 60991 9000.00000 0 1676312.432 -21885678.559 13001791.898 10 0 60991 9900.00000 0 2038795.027 -23275260.897 10239660.731 10 0 60991 10800.00000 0 2208609.811 -24347318.348 7278654.104 10 0 60991 11700.00000 0 2227470.717 -25062906.685 4176244.580 10 0 60991 12600.00000 0 2143753.478 -25394399.917 992683.476 10 0 60991 13500.00000 0 2010201.260 -25326642.694 -2210170.177 10 0 60991 14400.00000 0 1881444.487 -24857599.260 -5370054.677 10 0 60991 15300.00000 0 1811440.581 -23998470.795 -8425520.746 10 0 60991 16200.00000 0 1850942.906 -22773275.436 -11317132.386 10 0 60991 17100.00000 0 2045107.171 -21217907.971 -13988629.397 10 0 60991 18000.00000 0 2431337.815 -19378718.288 -16388028.126 10 0 60991 18900.00000 0 3037466.743 -17310668.033 -18468638.434 10 0 60991 19800.00000 0 3880342.688 -15075142.699 -20189976.587 10 0 60991 20700.00000 0 4964892.000 -12737510.915 -21518556.018 10 0 60991 21600.00000 0 6283691.642 -10364533.175 -22428540.464 10 0 60991 22500.00000 0 7817073.485 -8021728.380 -22902246.865 10 0 60991 23400.00000 0 9533756.476 -5770808.182 -22930488.395 10 0 60991 24300.00000 0 11391980.964 -3667285.987 -22512751.208 10 0 60991 25200.00000 0 13341098.350 -1758359.907 -21657201.703 10 0 60991 26100.00000 0 15323549.924 -81157.316 -20380524.369 10 0 60991 27000.00000 0 17277152.450 1338586.706 -18707593.566 10 0 60991 27900.00000 0 19137595.063 2487363.065 -16670985.702 10 0 60991 28800.00000 0 20841043.032 3364201.037 -14310341.434 10 0 60991 29700.00000 0 22326739.450 3980447.901 -11671590.426 10 0 60991 30600.00000 0 23539495.873 4359026.751 -8806053.865 10 0 60991 31500.00000 0 24431967.488 4533205.421 -5769442.492 10 0 60991 32400.00000 0 24966617.533 4544929.991 -2620769.923 10 0 60991 33300.00000 0 25117288.669 4442794.673 578797.230 10 0 60991 34200.00000 0 24870315.613 4279735.085 3767129.637 10 0 60991 35100.00000 0 24225132.714 4110543.413 6882342.441 10 0 60991 36000.00000 0 23194351.328 3989311.322 9863995.622 10 0 60991 36900.00000 0 21803304.222 3966909.210 12654264.094 10 0 60991 37800.00000 0 20089076.440 4088608.649 15199054.894 10 0 60991 38700.00000 0 18099063.436 4391948.508 17449050.151 10 0 60991 39600.00000 0 15889116.847 4904934.863 19360656.121 10 0 60991 40500.00000 0 13521355.127 5644650.538 20896840.659 10 0 60991 41400.00000 0 11061729.872 6616332.966 22027843.746 10 0 60991 42300.00000 0 8577448.496 7812959.461 22731748.186 10 0 60991 43200.00000 0 6134359.511 9215357.880 22994900.191 10 0 60991 44100.00000 0 3794407.926 10792838.954 22812172.326 10 0 60991 45000.00000 0 1613265.323 12504324.945 22187064.010 10 0 60991 45900.00000 0 -361768.244 14299928.769 21131637.623 10 0 60991 46800.00000 0 -2093504.478 16122919.081 19666291.110 10 0 60991 47700.00000 0 -3556177.881 17911990.576 17819370.807 10 0 60991 48600.00000 0 -4736273.872 19603745.934 15626631.135 10 0 60991 49500.00000 0 -5632840.202 21135286.679 13130550.561 10 0 60991 50400.00000 0 -6257269.145 22446805.163 10379516.120 10 0 60991 51300.00000 0 -6632560.092 23484069.429 7426891.367 10 0 60991 52200.00000 0 -6792093.841 24200696.624 4329985.138 10 0 60991 53100.00000 0 -6777970.573 24560119.047 1148940.774 10 0 60991 54000.00000 0 -6638981.968 24537159.446 -2054432.732 10 0 60991 54900.00000 0 -6428303.670 24119148.343 -5217864.722 10 0 60991 55800.00000 0 -6201006.308 23306535.320 -8279838.076 10 0 60991 56700.00000 0 -6011491.208 22112967.471 -11180791.322 10 0 60991 57600.00000 0 -5910960.299 20564830.770 -13864283.547 10 0 60991 58500.00000 0 -5945028.337 18700272.828 -16278098.631 10 0 60991 59400.00000 0 -6151579.597 16567747.479 -18375266.729 10 0 60991 60300.00000 0 -6558960.742 14224141.806 -20114982.600 10 0 60991 61200.00000 0 -7184587.288 11732563.862 -21463402.624 10 0 60991 62100.00000 0 -8034023.478 9159883.490 -22394304.901 10 0 60991 63000.00000 0 -9100575.232 6574128.874 -22889599.651 10 0 60991 63900.00000 0 -10365414.135 4041847.402 -22939680.153 10 0 60991 64800.00000 0 -11798227.886 1625540.625 -22543607.661 10 0 60991 65700.00000 0 -13358370.489 -618720.187 -21709126.941 10 0 60991 66600.00000 0 -14996464.282 -2643399.110 -20452512.342 10 0 60991 67500.00000 0 -16656386.904 -4411234.395 -18798247.592 10 0 60991 68400.00000 0 -18277560.027 -5896539.627 -16778545.634 10 0 60991 69300.00000 0 -19797443.905 -7086014.202 -14432717.986 10 0 60991 70200.00000 0 -21154133.041 -7979030.792 -11806405.965 10 0 60991 71100.00000 0 -22288943.961 -8587389.442 -8950688.891 10 0 60991 72000.00000 0 -23148886.304 -8934550.347 -5921086.867 10 0 60991 72900.00000 0 -23688913.330 -9054379.351 -2776477.815 10 0 60991 73800.00000 0 -23873857.252 -8989460.625 422049.797 10 0 60991 74700.00000 0 -23679968.036 -8789049.166 3612385.785 10 0 60991 75600.00000 0 -23095991.139 -8506750.803 6732605.169 10 0 60991 76500.00000 0 -22123739.037 -8198028.672 9722169.446 10 0 60991 77400.00000 0 -20778132.760 -7917642.173 12523098.720 10 0 60991 78300.00000 0 -19086711.804 -7717127.016 15081092.022 10 0 60991 79200.00000 0 -17088633.034 -7642422.839 17346574.412 10 0 60991 80100.00000 0 -14833200.333 -7731748.500 19275651.075 10 0 60991 81000.00000 0 -12377986.098 -8013814.407 20830950.658 10 0 60991 81900.00000 0 -9786622.354 -8506447.058 21982342.385 10 0 60991 82800.00000 0 -7126352.660 -9215683.601 22707513.889 10 0 60991 83700.00000 0 -4465445.596 -10135374.662 22992399.410 10 0 60991 84600.00000 0 -1870576.058 -11247312.567 22831450.625 10 0 60991 85500.00000 0 595718.200 -12521880.341 22227745.217 10 0 60992 0.00000 0 2877400.334 -13919195.186 21192931.173 10 0 60992 900.00000 0 4927022.804 -15390700.523 19747006.915 10 0 60992 1800.00000 0 6707451.763 -16881139.331 17917942.366 10 0 60992 2700.00000 0 8193160.718 -18330829.853 15741145.549 10 0 60992 3600.00000 0 9371037.305 -19678147.574 13258785.331 10 0 60992 4500.00000 0 10240671.320 -20862110.872 10518981.953 10 0 60992 5400.00000 0 10814112.284 -21824962.157 7574880.210 10 0 60992 6300.00000 0 11115107.052 -22514636.095 4483622.526 10 0 60992 7200.00000 0 11177849.904 -22887010.753 1305241.501 10 0 60992 8100.00000 0 11045298.129 -22907846.206 -1898506.704 10 0 60992 9000.00000 0 10767124.621 -22554327.987 -5065345.227 10 0 60992 9900.00000 0 10397394.554 -21816149.174 -8133691.773 10 0 60992 10800.00000 0 9992065.074 -20696084.310 -11043861.932 10 0 60992 11700.00000 0 9606414.586 -19210029.717 -13739236.450 10 0 60992 12600.00000 0 9292511.323 -17386507.457 -16167368.924 10 0 60992 13500.00000 0 9096829.193 -15265652.777 -18281011.735 10 0 60992 14400.00000 0 9058112.675 -12897726.806 -20039039.785 10 0 60992 15300.00000 0 9205581.805 -10341216.244 -21407253.713 10 0 60992 16200.00000 0 9557553.836 -7660599.159 -22359046.908 10 0 60992 17100.00000 0 10120540.374 -4923869.894 -22875923.389 10 0 60992 18000.00000 0 10888858.581 -2199926.101 -22947856.650 10 0 60992 18900.00000 0 11844773.252 444073.461 -22573482.760 10 0 60992 19800.00000 0 12959164.129 2945270.753 -21760124.194 10 0 60992 20700.00000 0 14192690.612 5247483.729 -20523644.161 10 0 60992 21600.00000 0 15497405.022 7303296.848 -18888134.442 10 0 60992 22500.00000 0 16818746.671 9075780.714 -16885442.907 10 0 60992 23400.00000 0 18097832.851 10539770.191 -14554550.008 10 0 60992 24300.00000 0 19273950.305 11682649.049 -11940806.503 10 0 60992 25200.00000 0 20287142.222 12504609.845 -9095047.340 10 0 60992 26100.00000 0 21080781.687 13018379.811 -6072599.206 10 0 60992 27000.00000 0 21604023.086 13248426.014 -2932201.339 10 0 60992 27900.00000 0 21814028.068 13229674.893 265139.059 10 0 60992 28800.00000 0 21677872.230 13005801.698 3457334.117 10 0 60992 29700.00000 0 21174052.177 12627163.330 6582421.838 10 0 60992 30600.00000 0 20293529.534 12148462.954 9579768.185 10 0 60992 31500.00000 0 19040267.976 11626245.763 12391241.167 10 0 60992 32400.00000 0 17431240.721 11116332.123 14962334.241 10 0 60992 33300.00000 0 15495907.984 10671296.607 17243217.509 10 0 60992 34200.00000 0 13275186.059 10338099.145 19189696.854 10 0 60992 35100.00000 0 10819950.631 10155967.870 20764063.139 10 0 60992 36000.00000 0 8189136.087 10154622.436 21935815.882 10 0 60992 36900.00000 0 5447509.114 10352912.189 22682248.225 10 0 60992 37800.00000 0 2663208.068 10757926.232 22988882.692 10 0 60992 38700.00000 0 -94850.974 11364612.743 22849749.901 10 0 60992 39600.00000 0 -2759595.136 12155923.809 22267505.158 10 0 60992 40500.00000 0 -5268335.326 13103480.274 21253380.710 10 0 60992 41400.00000 0 -7565122.393 14168729.553 19826974.241 10 0 60992 42300.00000 0 -9602822.205 15304548.845 18015877.081 10 0 60992 43200.00000 0 -11344824.454 16457227.568 15855148.457 10 0 60992 44100.00000 0 -12766314.886 17568746.799 13386644.944 10 0 60992 45000.00000 0 -13855058.495 18579260.808 10658217.118 10 0 60992 45900.00000 0 -14611661.442 19429676.841 7722788.038 10 0 60992 46800.00000 0 -15049301.084 20064224.804 4637330.735 10 0 60992 47700.00000 0 -15192935.687 20432908.339 1461764.126 10 0 60992 48600.00000 0 -15078027.430 20493733.396 -1742211.300 10 0 60992 49500.00000 0 -14748832.801 20214619.362 -4912315.205 10 0 60992 50400.00000 0 -14256333.034 19574910.955 -7986902.678 10 0 60992 51300.00000 0 -13655892.555 18566425.770 -10906168.739 10 0 60992 52200.00000 0 -13004745.099 17193991.940 -13613317.932 10 0 60992 53100.00000 0 -12359414.561 15475451.911 -16055675.429 10 0 60992 54000.00000 0 -11773180.393 13441130.957 -18185717.412 10 0 60992 54900.00000 0 -11293695.431 11132791.643 -19962000.175 10 0 60992 55800.00000 0 -10960857.465 8602117.245 -21349969.576 10 0 60992 56700.00000 0 -10805024.973 5908786.863 -22322634.939 10 0 60992 57600.00000 0 -10845652.693 3118222.122 -22861094.429 10 0 60992 58500.00000 0 -11090404.873 299099.070 -22954901.794 10 0 60992 59400.00000 0 -11534783.672 -2479271.447 -22602267.630 10 0 60992 60300.00000 0 -12162288.423 -5149586.250 -21810091.494 10 0 60992 61200.00000 0 -12945098.988 -7649105.598 -20593824.473 10 0 60992 62100.00000 0 -13845254.296 -9922016.492 -18977165.062 10 0 60992 63000.00000 0 -14816276.289 -11921505.867 -16991594.372 10 0 60992 63900.00000 0 -15805170.626 -13611458.199 -14675759.815 10 0 60992 64800.00000 0 -16754719.634 -14967707.827 -12074719.365 10 0 60992 65700.00000 0 -17605970.573 -15978795.014 -9239061.182 10 0 60992 66600.00000 0 -18300814.009 -16646195.562 -6223916.002 10 0 60992 67500.00000 0 -18784543.254 -16984015.950 -3087881.756 10 0 60992 68400.00000 0 -19008286.675 -17018168.432 108118.304 10 0 60992 69300.00000 0 -18931209.979 -16785062.379 3302021.336 10 0 60992 70200.00000 0 -18522395.465 -16329868.392 6431831.061 10 0 60992 71100.00000 0 -17762318.852 -15704429.616 9436820.634 10 0 60992 72000.00000 0 -16643861.364 -14964909.250 12258708.647 10 0 60992 72900.00000 0 -15172814.333 -14169274.098 14842785.536 10 0 60992 73800.00000 0 -13367854.868 -13374720.518 17138968.800 10 0 60992 74700.00000 0 -11259993.235 -12635151.222 19102767.098 10 0 60992 75600.00000 0 -8891514.509 -11998808.833 20696135.228 10 0 60992 76500.00000 0 -6314457.904 -11506165.286 21888204.308 10 0 60992 77400.00000 0 -3588696.200 -11188155.197 22655873.843 10 0 60992 78300.00000 0 -779693.982 -11064826.864 22984255.041 10 0 60992 79200.00000 0 2043963.528 -11144467.097 22866957.411 10 0 60992 80100.00000 0 4813169.849 -11423236.423 22306213.416 10 0 60992 81000.00000 0 7460918.501 -11885330.017 21312838.834 10 0 60992 81900.00000 0 9924838.768 -12503657.993 19906029.242 10 0 60992 82800.00000 0 12149541.958 -13241017.079 18112995.952 10 0 60992 83700.00000 0 14088681.740 -14051705.247 15968447.595 10 0 60992 84600.00000 0 15706643.710 -14883512.247 13513926.363 10 0 60992 85500.00000 0 16979794.317 -15680003.057 10797010.780 10 0 60993 0.00000 0 17897237.383 -16382998.587 7870399.787 10 0 60993 900.00000 0 18461047.236 -16935149.729 4790893.594 10 0 60993 1800.00000 0 18685967.702 -17282495.127 1618294.623 10 0 60993 2700.00000 0 18598591.403 -17376895.527 -1585755.464 10 0 60993 3600.00000 0 18236052.793 -17178240.099 -4758975.998 10 0 60993 4500.00000 0 17644290.886 -16656330.811 -7839662.489 10 0 60993 5400.00000 0 16875955.291 -15792363.898 -10767892.235 10 0 60993 6300.00000 0 15988044.476 -14579944.408 -13486696.174 10 0 60993 7200.00000 0 15039376.659 -13025589.575 -15943173.365 10 0 60993 8100.00000 0 14088000.780 -11148698.370 -18089525.782 10 0 60993 9000.00000 0 13188657.500 -8980987.183 -19883992.773 10 0 60993 9900.00000 0 12390397.949 -6565414.178 -21291666.690 10 0 60993 10800.00000 0 11734461.085 -3954636.409 -22285173.698 10 0 60993 11700.00000 0 11252499.369 -1209063.393 -22845206.612 10 0 60993 12600.00000 0 10965227.617 1605412.185 -22960899.528 10 0 60993 13500.00000 0 10881551.797 4419912.577 -22630037.278 10 0 60993 14400.00000 0 10998214.213 7165198.320 -21859095.833 10 0 60993 15300.00000 0 11299969.638 9774308.025 -20663113.140 10 0 60993 16200.00000 0 11760284.528 12185105.274 -19065393.067 10 0 60993 17100.00000 0 12342529.350 14342627.182 -17097048.310 10 0 60993 18000.00000 0 13001613.283 16201137.459 -14796391.289 10 0 60993 18900.00000 0 13685991.808 17725799.269 -12208184.934 10 0 60993 19800.00000 0 14339962.000 18893899.065 -9382768.081 10 0 60993 20700.00000 0 14906148.142 19695571.422 -6375072.706 10 0 60993 21600.00000 0 15328072.233 20133995.893 -3243552.416 10 0 60993 22500.00000 0 15552700.419 20225059.068 -49043.344 10 0 60993 23400.00000 0 15532857.434 19996497.523 3146419.914 10 0 60993 24300.00000 0 15229406.766 19486559.093 6280809.975 10 0 60993 25200.00000 0 14613104.312 18742240.112 9293310.216 10 0 60993 26100.00000 0 13666047.101 17817173.848 12125492.624 10 0 60993 27000.00000 0 12382655.821 16769259.822 14722447.142 10 0 60993 27900.00000 0 10770149.502 15658134.201 17033840.888 10 0 60993 28800.00000 0 8848491.999 14542587.769 19014887.166 10 0 60993 29700.00000 0 6649811.884 13478039.795 20627206.233 10 0 60993 30600.00000 0 4217319.170 12514173.377 21839561.951 10 0 60993 31500.00000 0 1603763.061 11692830.860 22628460.940 10 0 60993 32400.00000 0 -1130506.307 11046256.802 22978603.421 10 0 60993 33300.00000 0 -3919792.929 10595761.422 22883177.660 10 0 60993 34200.00000 0 -6695534.617 10350859.941 22343992.673 10 0 60993 35100.00000 0 -9388905.924 10308923.505 21371446.651 10 0 60993 36000.00000 0 -11933437.737 10455356.163 19984331.445 10 0 60993 36900.00000 0 -14267546.099 10764290.643 18209476.261 10 0 60993 37800.00000 0 -16336866.303 11199774.018 16081236.625 10 0 60993 38700.00000 0 -18096296.027 11717393.956 13640837.513 10 0 60993 39600.00000 0 -19511662.943 12266277.622 10935582.334 10 0 60993 40500.00000 0 -20560947.564 12791379.479 8017942.209 10 0 60993 41400.00000 0 -21235010.313 13235961.750 4944542.415 10 0 60993 42300.00000 0 -21537792.384 13544162.792 1775065.276 10 0 60993 43200.00000 0 -21485981.914 13663544.499 -1428909.332 10 0 60993 44100.00000 0 -21108159.509 13547510.364 -4605103.199 10 0 60993 45000.00000 0 -20443459.179 13157490.922 -7691754.858 10 0 60993 45900.00000 0 -19539801.327 12464802.911 -10628826.281 10 0 60993 46800.00000 0 -18451772.671 11452102.160 -13359176.962 10 0 60993 47700.00000 0 -17238242.975 10114367.320 -15829681.735 10 0 60993 48600.00000 0 -15959819.653 8459371.428 -17992269.945 10 0 60993 49500.00000 0 -14676248.108 6507619.961 -19804865.237 10 0 60993 50400.00000 0 -13443867.841 4291756.656 -21232207.342 10 0 60993 51300.00000 0 -12313231.799 1855460.801 -22246539.788 10 0 60993 52200.00000 0 -11326989.338 -748118.845 -22828150.193 10 0 60993 53100.00000 0 -10518121.812 -3458328.884 -22965752.815 10 0 60993 54000.00000 0 -9908604.736 -6209293.547 -22656706.189 10 0 60993 54900.00000 0 -9508552.288 -8932419.841 -21907061.843 10 0 60993 55800.00000 0 -9315879.523 -11559021.679 -20731443.411 10 0 60993 56700.00000 0 -9316495.732 -14022954.181 -19152758.661 10 0 60993 57600.00000 0 -9485019.971 -16263148.909 -17201750.144 10 0 60993 58500.00000 0 -9785987.785 -18225944.899 -14916393.322 10 0 60993 59400.00000 0 -10175497.353 -19867118.936 -12341153.948 10 0 60993 60300.00000 0 -10603224.837 -21153531.048 -9526119.277 10 0 60993 61200.00000 0 -11014723.024 -22064317.353 -6526020.197 10 0 60993 62100.00000 0 -11353905.494 -22591581.382 -3399163.619 10 0 60993 63000.00000 0 -11565610.670 -22740556.088 -206296.172 10 0 60993 63900.00000 0 -11598136.865 -22529231.010 2990578.196 10 0 60993 64800.00000 0 -11405640.706 -21987461.512 6129403.421 10 0 60993 65700.00000 0 -10950297.268 -21155598.769 9149275.535 10 0 60993 66600.00000 0 -10204130.411 -20082699.132 11991622.335 10 0 60993 67500.00000 0 -9150435.848 -18824388.990 14601335.639 10 0 60993 68400.00000 0 -7784736.677 -17440475.385 16927834.425 10 0 60993 69300.00000 0 -6115230.795 -15992402.923 18926038.704 10 0 60993 70200.00000 0 -4162710.809 -14540663.581 20557235.983 10 0 60993 71100.00000 0 -1959958.992 -13142267.517 21789824.344 10 0 60993 72000.00000 0 449358.449 -11848380.190 22599918.625 10 0 60993 72900.00000 0 3012252.918 -10702223.789 22971808.772 10 0 60993 73800.00000 0 5668367.228 -9737329.866 22898262.128 10 0 60993 74700.00000 0 8352241.912 -8976215.375 22380664.184 10 0 60993 75600.00000 0 10995801.481 -8429536.751 21428995.107 10 0 60993 76500.00000 0 13530958.917 -8095756.866 20061642.231 10 0 60993 77400.00000 0 15892231.546 -7961338.510 18305051.531 10 0 60993 78300.00000 0 18019260.741 -8001456.198 16193223.982 10 0 60993 79200.00000 0 19859131.491 -8181196.510 13767065.558 10 0 60993 80100.00000 0 21368395.738 -8457196.714 11073602.449 10 0 60993 81000.00000 0 22514715.331 -8779652.895 8165075.772 10 0 60993 81900.00000 0 23278055.953 -9094613.054 5097932.588 10 0 60993 82800.00000 0 23651381.851 -9346458.296 1931732.366 10 0 60993 83700.00000 0 23640822.010 -9480466.944 -1272010.007 10 0 60993 84600.00000 0 23265300.542 -9445352.518 -4451022.053 10 0 60993 85500.00000 0 22555646.663 -9195667.309 -7543488.565 10 0 60994 0.00000 0 21553221.813 -8693968.730 -10489259.022 10 0 60994 900.00000 0 20308121.228 -7912655.167 -13231024.854 10 0 60994 1800.00000 0 18877027.423 -6835392.919 -15715438.953 10 0 60994 2700.00000 0 17320804.558 -5458071.622 -17894160.257 10 0 60994 3600.00000 0 15701936.641 -3789246.888 -19724798.583 10 0 60994 4500.00000 0 14081917.306 -1850049.906 -21171742.574 10 0 60994 5400.00000 0 12518701.252 326433.529 -22206854.289 10 0 60994 6300.00000 0 11064324.560 2696289.672 -22810016.964 10 0 60994 7200.00000 0 9762793.763 5206363.017 -22969525.463 10 0 60994 8100.00000 0 8648331.913 7796236.545 -22682312.085 10 0 60994 9000.00000 0 7744054.709 10400524.069 -21954003.596 10 0 60994 9900.00000 0 7061131.484 12951379.586 -20798808.623 10 0 60994 10800.00000 0 6598465.287 15381119.476 -19239237.761 10 0 60994 11700.00000 0 6342904.428 17624848.669 -17305661.971 10 0 60994 12600.00000 0 6269975.421 19622981.612 -15035717.945 10 0 60994 13500.00000 0 6345105.264 21323553.284 -12473572.094 10 0 60994 14400.00000 0 6525280.387 22684224.243 -9669057.573 10 0 60994 15300.00000 0 6761071.171 23673896.470 -6676701.362 10 0 60994 16200.00000 0 6998935.544 24273873.124 -3554660.583 10 0 60994 17100.00000 0 7183703.414 24478514.494 -363589.084 10 0 60994 18000.00000 0 7261136.166 24295363.610 2834543.222 10 0 60994 18900.00000 0 7180452.369 23744737.283 5977654.958 10 0 60994 19800.00000 0 6896712.449 22858800.816 9004758.077 10 0 60994 20700.00000 0 6372961.209 21680166.175 11857139.265 10 0 60994 21600.00000 0 5582037.417 20260073.310 14479495.025 10 0 60994 22500.00000 0 4507973.896 18656231.460 16820998.690 10 0 60994 23400.00000 0 3146928.786 16930411.298 18836279.135 10 0 60994 24300.00000 0 1507608.363 15145888.658 20486292.910 10 0 60994 25200.00000 0 -388837.042 13364846.511 21739073.720 10 0 60994 26100.00000 0 -2509440.572 11645843.126 22570345.618 10 0 60994 27000.00000 0 -4810544.770 10041451.313 22963988.831 10 0 60994 27900.00000 0 -7239380.348 8596166.289 22912349.867 10 0 60994 28800.00000 0 -9736033.538 7344668.438 22416390.267 10 0 60994 29700.00000 0 -12235721.770 6310512.485 21485671.229 10 0 60994 30600.00000 0 -14671284.643 5505296.957 20138174.083 10 0 60994 31500.00000 0 -16975788.004 4928347.972 18399959.562 10 0 60994 32400.00000 0 -19085134.028 4566930.148 16304671.603 10 0 60994 33300.00000 0 -20940569.578 4396975.504 13892894.291 10 0 60994 34200.00000 0 -22490988.825 4384299.660 11211373.400 10 0 60994 35100.00000 0 -23694934.301 4486254.161 8312116.671 10 0 60994 36000.00000 0 -24522212.650 4653745.272 5251389.498 10 0 60994 36900.00000 0 -24955057.123 4833533.910 2088625.078 10 0 60994 37800.00000 0 -24988787.649 4970719.254 -1114729.991 10 0 60994 38700.00000 0 -24631940.226 5011300.418 -4296412.089 10 0 60994 39600.00000 0 -23905859.778 4904706.997 -7394555.190 10 0 60994 40500.00000 0 -22843773.234 4606190.312 -10348899.480 10 0 60994 41400.00000 0 -21489381.669 4078972.908 -13101969.690 10 0 60994 42300.00000 0 -19895030.732 3296063.998 -15600199.443 10 0 60994 43200.00000 0 -18119536.494 2241662.638 -17794979.056 10 0 60994 44100.00000 0 -16225758.356 912087.952 -19643605.903 10 0 60994 45000.00000 0 -14278021.270 -683804.281 -21110118.480 10 0 60994 45900.00000 0 -12339495.735 -2524737.514 -22165997.850 10 0 60994 46800.00000 0 -10469645.502 -4577659.207 -22790722.869 10 0 60994 47700.00000 0 -8721849.965 -6798888.497 -22972168.538 10 0 60994 48600.00000 0 -7141300.443 -9135719.640 -22706840.044 10 0 60994 49500.00000 0 -5763257.942 -11528414.964 -21999938.134 10 0 60994 50400.00000 0 -4611744.524 -13912504.620 -20865254.836 10 0 60994 51300.00000 0 -3698722.091 -16221297.627 -19324901.711 10 0 60994 52200.00000 0 -3023791.763 -18388499.721 -17408876.052 10 0 60994 53100.00000 0 -2574425.120 -20350829.025 -15154473.538 10 0 60994 54000.00000 0 -2326716.165 -22050520.500 -12605558.889 10 0 60994 54900.00000 0 -2246620.888 -23437614.833 -9811708.769 10 0 60994 55800.00000 0 -2291630.832 -24471936.294 -6827243.837 10 0 60994 56700.00000 0 -2412808.731 -25124677.192 -3710169.063 10 0 60994 57600.00000 0 -2557099.101 -25379523.088 -521043.192 10 0 60994 58500.00000 0 -2669815.121 -25233272.230 2678200.162 10 0 60994 59400.00000 0 -2697195.834 -24695923.962 5825456.523 10 0 60994 60300.00000 0 -2588924.938 -23790233.223 8859655.933 10 0 60994 61200.00000 0 -2300504.179 -22550750.601 11721946.077 10 0 60994 62100.00000 0 -1795380.809 -21022388.911 14356830.170 10 0 60994 63000.00000 0 -1046739.039 -19258576.879 16713237.827 10 0 60994 63900.00000 0 -38879.724 -17319077.563 18745508.536 10 0 60994 64800.00000 0 1231870.091 -15267562.734 20414269.415 10 0 60994 65700.00000 0 2756756.520 -13169044.247 21687191.060 10 0 60994 66600.00000 0 4514724.586 -11087269.022 22539607.692 10 0 60994 67500.00000 0 6473066.081 -9082185.368 22954990.447 10 0 60994 68400.00000 0 8588563.724 -7207585.188 22925265.288 10 0 60994 69300.00000 0 10809085.265 -5509019.125 22450969.781 10 0 60994 70200.00000 0 13075562.651 -4022070.365 21541245.802 10 0 60994 71100.00000 0 15324275.384 -2771057.940 20213668.043 10 0 60994 72000.00000 0 17489344.424 -1768222.719 18493911.076 10 0 60994 72900.00000 0 19505334.055 -1013429.333 16415260.598 10 0 60994 73800.00000 0 21309854.238 -494395.964 14017977.326 10 0 60994 74700.00000 0 22846055.497 -187441.985 11348524.844 10 0 60994 75600.00000 0 24064912.415 -58721.810 8458675.439 10 0 60994 76500.00000 0 24927200.108 -65892.811 5404510.463 10 0 60994 77400.00000 0 25405080.523 -160146.765 2245334.193 10 0 60994 78300.00000 0 25483231.398 -288518.724 -957477.925 10 0 60994 79200.00000 0 25159469.803 -396375.168 -4141674.137 10 0 60994 80100.00000 0 24444843.281 -429975.463 -7245340.646 10 0 60994 81000.00000 0 23363184.147 -338997.272 -10208111.062 10 0 60994 81900.00000 0 21950145.137 -78917.882 -12972346.762 10 0 60994 82800.00000 0 20251756.671 386850.579 -15484264.406 10 0 60994 83700.00000 0 18322566.187 1085163.675 -17694987.994 10 0 60994 84600.00000 0 16223437.719 2031762.277 -19561504.477 10 0 60994 85500.00000 0 14019104.128 3230364.921 -21047503.942 99